This demonstration page uses our WeatherBlox Daily Observations layout. Learn more.

Left ArrowRight Arrow

Hourly Observations for June 5, 2021

Temp ( °F °C ) Dew Point ( °F °C ) Humidity (%) Winds ( mph kmh ) Pressure ( in mb ) Visibility ( mi km ) Precip ( " mm )
12:51 am 00:51 Clear 83 28.3 23 -5 11 11 WNW 17 28 29.73 1007 10 16 N/A
1:51 am 01:51 Clear 79 26.1 22 -5.6 12 12 WNW 12 19 29.74 1007 10 16 N/A
2:51 am 02:51 Clear 82 27.8 23 -5 11 11 NW 17 28 29.74 1007 10 16 N/A
3:51 am 03:51 Clear 80 26.7 23 -5 12 12 NW 15 24 29.73 1007 10 16 N/A
4:51 am 04:51 Clear 77 25 23 -5 13 13 NW 10 17 29.77 1008 10 16 N/A
5:51 am 05:51 Sunny 77 25 23 -5 13 13 NW 10 17 29.78 1008 10 16 N/A
6:51 am 06:51 Sunny 79 26.1 24 -4.4 13 13 NW 13 20 29.78 1009 10 16 N/A
7:51 am 07:51 Sunny 82 27.8 23 -5 11 11 NW 17 28 29.78 1009 10 16 N/A
8:51 am 08:51 Sunny 84 28.9 23 -5 10 10 NW 18 30 29.78 1009 10 16 N/A
9:51 am 09:51 Sunny 86 30 24 -4.4 10 10 NW 17 28 29.76 1008 10 16 N/A
10:51 am 10:51 Sunny 93 33.9 25 -3.9 8 8 NW 16 26 29.74 1007 10 16 N/A
11:51 am 11:51 Sunny 97 36.1 25 -3.9 7 7 NW 23 37 29.71 1006 10 16 N/A
12:51 pm 12:51 Sunny 98 36.7 26 -3.3 8 8 WNW 22 35 29.67 1005 10 16 N/A
1:51 pm 13:51 Sunny 101 38.3 25 -3.9 7 7 WNW 32 52 29.64 1004 10 16 N/A
2:51 pm 14:51 Sunny 101 38.3 24 -4.4 6 6 WNW 28 44 29.61 1003 10 16 N/A
3:51 pm 15:51 Mostly Sunny 99 37.2 25 -3.9 7 7 W 25 41 29.60 1003 10 16 N/A
4:51 pm 16:51 Cloudy 98 36.7 25 -3.9 7 7 WNW 28 44 29.59 1002 10 16 N/A
5:51 pm 17:51 Mostly Cloudy 96 35.6 27 -2.8 8 8 WNW 31 50 29.60 1002 10 16 N/A
6:51 pm 18:51 Partly Cloudy 94 34.4 28 -2.2 9 9 WNW 24 39 29.62 1003 10 16 N/A
7:51 pm 19:51 Mostly Cloudy 90 32.2 29 -1.7 11 11 WNW 21 33 29.64 1004 10 16 N/A
8:51 pm 20:51 Mostly Clear 88 31.1 30 -1.1 12 12 WNW 15 24 29.67 1005 10 16 N/A
9:51 pm 21:51 Clear 86 30 30 -1.1 13 13 WNW 16 26 29.70 1006 10 16 N/A
10:51 pm 22:51 Clear 85 29.4 30 -1.1 14 14 NW 18 30 29.70 1006 10 16 N/A
11:51 pm 23:51 Clear 84 28.9 31 -0.6 15 15 NW 16 26 29.70 1006 10 16 N/A

Powered by AerisWeather